User: anonymous   Login
Location: Camoruquito
(9.9001°N, 67.3564°W)
Time: 03:15:04
(UTC+00:00)
Language:

Ariane H10-3 - Orbit

View from above orbital plane
View from above orbital plane
View from above satellite
View from above satellite

Ground track
Ground track

The orbit data is extracted from the following two-line orbital elements,

1 23766U 96002C   24167.67532955  .00001491  00000-0  90838-3 0  9999
2 23766   7.6445 231.4357 6320496  97.5102 333.4753  3.51584865302537
Epoch (UTC): 15 June 2024 16:12:28
Eccentricity: 0.6320496
inclination: 7.6445°
perigee height: 344 km
apogee height: 23437 km
right ascension of ascending node: 231.4357°
argument of perigee: 97.5102°
revolutions per day: 3.51584865
mean anomaly at epoch: 333.4753°
orbit number at epoch: 30253

The dashed part of the orbit path shows where the satellite is in the earth's shadow,  

DLR